Temperature
20 19 19 19 18 18 18 18 17 17 17 17 17 17 16 16 16 16 16 16 16 16 16 16 16 16 16 16 16 16 16 16 16 16 16 16 16 16 16 16 15 15 15
20 19 19 19 18 18 18 18 17 17 17 17 16 16 16 16 16 16 16 16 16 16 16 16 16 16 16 16 16 16 16 16 16 16 16 16 16 16 15 15 15 15 15
20 19 19 19 18 18 18 18 17 17 17 17 17 16 16 16 16 16 16 16 16 16 16 16 16 15 15 15 15 15 15 16 16 16 16 16 15 15 15 15 15 15 15
20 20 19 19 18 18 18 18 17 17 17 17 17 16 16 16 16 16 16 16 16 15 15 15 15 15 15 15 15 15 15 15 16 16 16 16 16 16 15 15 15 15 15
20 20 19 19 19 18 18 18 17 17 17 17 17 16 16 16 16 16 16 16 16 15 15 15 15 15 15 15 15 15 15 15 15 16 16 16 16 16 15 15 15 15 14
21 20 20 19 19 18 18 18 17 17 17 17 17 16 16 16 16 16 16 16 15 15 15 15 15 15 15 15 15 15 15 15 15 15 15 15 15 15 15 15 15 15 14
21 20 20 19 19 18 18 17 17 17 17 17 16 16 16 16 16 16 16 16 16 15 15 15 15 15 15 15 15 15 15 15 15 15 15 15 15 15 15 15 15 15 14
21 20 20 19 19 18 18 17 17 17 17 17 17 16 16 16 16 16 16 16 16 15 16 15 15 15 15 15 15 15 15 15 15 15 15 15 15 15 15 15 15 14 14
21 20 20 19 19 18 18 17 17 17 17 17 17 16 16 16 16 16 16 16 16 16 16 16 15 15 15 15 15 15 15 15 15 15 15 14 14 14 14 14 14 14 14
21 20 19 19 18 18 18 17 17 17 17 17 16 16 16 16 16 16 16 16 16 16 16 15 15 15 15 15 15 15 15 15 15 15 14 14 14 14 14 14 14 14 14
21 20 19 19 18 18 17 17 17 17 17 17 16 16 16 16 16 16 16 16 16 16 15 15 15 15 15 15 15 15 15 14 14 14 14 14 14 14 14 14 14 14 14
20 20 19 19 18 18 17 17 17 17 17 16 16 16 16 16 16 16 16 16 16 16 15 15 15 15 15 15 15 15 14 14 14 14 14 14 14 14 14 14 14 13 13
20 19 19 18 18 18 17 17 17 17 16 16 16 16 16 16 16 16 15 16 16 15 15 15 15 15 15 15 14 14 14 14 14 14 14 14 14 14 14 13 13 13 13
20 19 19 18 18 17 17 17 17 17 16 16 16 16 16 16 16 15 15 15 15 15 15 15 15 15 15 14 14 14 14 14 14 14 14 14 14 14 14 13 13 13 13
20 19 18 18 18 17 17 17 17 17 16 16 16 16 16 16 15 15 15 15 15 15 15 15 15 15 15 14 14 14 14 14 14 14 14 14 14 13 13 13 13 13 13
19 19 18 18 18 17 17 17 17 16 16 16 16 16 16 15 15 15 15 15 15 15 15 15 15 15 14 14 14 14 14 14 14 13 13 13 13 13 13 13 13 13 12
19 19 18 18 18 17 17 17 17 16 16 16 16 16 16 15 15 15 15 15 15 15 15 15 15 14 14 14 14 14 13 13 13 13 13 13 13 13 12 12 12 12 12
19 18 18 18 17 17 17 17 17 16 16 16 16 16 16 15 15 15 15 15 15 15 14 14 14 14 14 14 14 13 13 13 13 13 13 13 13 12 12 12 12 12 12
19 18 18 17 17 17 17 17 17 16 16 16 16 16 15 15 15 15 15 15 14 14 14 14 14 14 14 14 13 13 13 13 13 13 12 13 12 12 12 12 12 12 11
18 18 18 17 17 17 17 17 16 16 16 16 16 15 15 15 15 15 15 14 14 14 14 14 14 14 14 13 13 13 12 12 12 12 12 12 12 12 12 11 11 11 11
18 18 17 17 17 17 17 17 16 16 16 16 15 15 15 15 15 14 14 14 14 14 14 13 13 13 13 13 13 13 12 12 12 12 12 12 12 12 11 11 11 11 11
17 17 17 17 17 17 16 16 16 16 16 15 15 15 15 15 14 14 14 14 14 13 13 13 13 13 13 13 12 12 12 12 12 12 11 11 11 11 11 11 11 10 10
17 17 16 16 16 16 16 16 16 16 15 15 15 15 15 14 14 14 14 14 13 13 13 13 13 13 12 12 12 12 12 12 11 11 11 11 11 11 11 10 10 10 10
16 16 16 16 16 16 16 16 15 15 15 15 15 14 14 14 14 14 13 13 13 13 13 12 12 12 12 12 12 12 11 11 11 11 11 10 10 10 10 10 9 9 9
16 15 15 15 15 15 15 15 15 15 15 14 14 14 14 14 13 13 13 13 13 13 12 12 12 12 12 12 12 11 11 11 11 10 10 10 10 10 9 9 9 9 8
15 15 15 15 14 14 14 14 15 14 14 14 13 13 13 13 13 13 12 12 12 12 12 12 12 12 12 11 11 11 11 11 10 10 10 9 9 9 9 8 8 8 8
Wind_Speed
10 8 7 7 7 7 8 8 7 6 5 3 3 2 2 2 3 3 6 6 7 6 5 3 4 4 4 3 4 3 3 2 3 3 3 3 4 4 3 4 4 6 8
10 9 8 7 7 7 7 7 7 6 6 3 3 3 2 3 3 3 4 4 5 5 4 4 3 3 3 4 4 3 2 2 2 2 2 2 3 4 3 4 4 4 7
12 11 10 8 7 7 7 8 7 7 7 5 3 3 3 2 3 3 3 4 6 6 5 4 3 2 3 3 2 3 2 2 2 3 2 2 1 0 3 4 4 4 4
10 10 10 10 8 7 6 7 7 7 6 6 4 4 4 3 3 3 2 2 5 6 5 5 4 3 3 3 2 3 2 2 2 2 2 2 2 2 1 2 4 5 6
10 10 10 10 9 8 6 6 6 6 6 6 5 4 3 3 3 3 4 3 3 4 5 5 4 3 3 3 4 5 4 3 2 2 2 3 2 2 2 1 1 3 3
9 9 9 9 9 7 6 6 6 5 5 6 5 5 5 4 4 4 3 3 3 2 3 4 4 3 3 3 3 3 4 3 3 3 3 2 2 2 2 2 2 2 2
10 10 10 10 9 9 7 7 7 6 5 6 6 6 5 5 5 4 3 3 3 2 2 3 3 3 3 4 3 3 3 3 3 3 3 3 3 2 2 2 1 1 1
9 10 9 9 10 10 8 8 8 7 6 5 5 6 6 3 3 3 3 3 3 2 3 4 4 4 4 4 4 3 3 3 3 4 3 3 3 4 3 2 2 2 2
8 9 10 10 10 10 9 8 9 8 7 6 5 5 5 4 3 4 4 3 3 3 4 4 4 4 5 4 4 4 4 4 4 4 4 3 3 3 4 3 2 2 2
8 9 9 10 10 9 9 8 8 8 7 6 5 5 5 5 3 3 4 4 3 3 4 4 4 4 4 5 5 4 3 4 3 3 4 4 3 3 3 3 3 3 2
8 9 8 8 9 9 9 8 8 8 7 7 6 6 5 5 5 3 4 4 3 4 4 3 4 4 4 4 4 3 3 3 2 2 4 4 4 3 3 3 4 4 3
8 8 8 8 8 9 10 9 8 7 7 7 6 6 6 5 5 4 4 4 3 3 3 4 4 4 3 3 3 3 2 3 2 2 3 3 3 3 3 3 3 3 3
8 8 8 8 8 8 8 9 9 8 7 7 7 6 6 6 5 5 4 3 3 3 3 4 4 4 3 3 2 3 2 3 3 3 4 3 3 2 2 2 2 2 3
7 8 8 7 7 8 8 8 8 8 8 7 6 6 6 6 5 5 4 3 4 4 3 4 4 4 3 3 2 2 3 3 4 3 4 4 4 4 4 3 4 3 3
6 8 8 7 7 8 8 8 8 8 9 8 7 6 6 6 6 5 4 3 3 4 4 4 4 4 4 3 4 3 2 3 3 3 3 4 6 7 5 4 4 4 3
6 7 7 8 9 9 9 8 8 8 9 9 7 6 6 6 6 6 4 4 3 3 5 5 4 4 4 6 7 5 3 2 2 2 3 4 5 6 6 6 6 5 3
6 6 7 7 7 8 9 9 9 8 9 8 8 7 7 7 6 6 5 5 4 4 4 4 5 5 5 6 6 6 3 2 2 2 2 3 4 4 3 4 5 5 5
6 6 6 6 6 6 7 8 8 9 8 8 8 8 8 7 7 7 6 5 4 4 4 4 5 5 4 4 4 4 2 1 2 3 2 3 3 3 3 1 2 3 3
5 5 5 5 6 6 7 8 8 8 7 7 8 9 8 8 7 7 6 5 5 4 4 5 5 5 3 3 2 2 0 1 1 2 3 4 4 5 5 3 2 2 2
4 5 5 5 6 6 7 8 7 7 7 7 7 8 8 8 7 7 6 5 5 4 4 4 4 5 4 3 2 1 1 1 1 2 3 5 5 5 5 3 2 2 2
4 5 5 4 5 6 7 7 7 7 7 6 6 7 7 8 7 6 5 6 5 4 4 4 4 4 4 4 3 2 1 1 1 1 2 3 4 4 4 3 1 1 2
4 5 5 4 4 5 7 6 6 6 7 7 6 6 6 7 7 7 6 5 5 5 5 4 4 3 4 4 3 3 1 2 1 1 2 2 2 2 3 2 2 3 4
4 4 5 5 4 4 6 7 6 7 8 8 7 6 7 6 6 6 6 5 4 4 4 4 3 3 3 3 4 3 1 2 1 1 2 2 0 0 1 1 2 2 2
4 4 5 5 4 3 4 5 7 8 8 8 7 6 6 6 6 5 5 4 4 3 3 3 3 3 3 3 2 1 1 1 2 1 1 1 1 1 1 1 1 1 1
4 4 4 5 4 4 4 5 6 7 8 7 7 6 5 6 6 5 4 5 4 5 5 4 4 4 4 3 5 4 2 2 1 1 1 0 0 0 1 1 1 1 1
4 4 4 4 5 4 4 4 5 7 7 6 6 5 5 5 6 6 5 5 5 6 7 6 5 4 5 7 6 5 3 3 3 3 1 0 0 0 0 0 1 1 1
Wind_Direction
167 161 160 153 153 151 143 139 140 132 124 112 103 96 85 75 62 61 58 42 44 43 52 53 60 53 54 50 66 60 56 43 60 67 52 50 51 62 55 48 56 57 62
164 161 160 157 159 152 144 146 145 142 133 128 130 127 118 101 88 58 54 43 51 51 56 69 78 82 71 48 50 55 42 34 62 80 79 53 23 21 62 63 64 59 56
167 165 167 161 159 157 158 156 155 147 141 141 124 111 88 82 93 85 57 33 50 49 37 56 69 76 94 81 57 71 66 22 22 59 78 111 135 22 30 55 70 64 55
165 165 168 163 167 161 156 155 158 147 141 137 133 138 132 123 115 114 109 77 60 55 39 47 58 64 74 75 48 57 58 56 22 13 23 45 99 117 77 31 63 66 63
163 166 166 162 163 158 156 153 151 147 143 139 139 140 120 121 112 109 104 97 78 67 54 47 55 60 69 73 62 51 37 46 44 34 25 20 12 32 106 110 82 67 69
166 166 162 156 153 149 151 144 140 138 137 140 149 145 134 126 115 104 102 101 92 68 67 70 66 63 69 71 69 73 62 48 43 32 39 47 32 7 49 96 120 110 88
171 168 160 156 151 150 152 147 145 145 147 156 160 149 143 140 133 129 118 107 102 80 65 61 63 60 70 75 67 67 75 72 68 54 35 34 29 27 40 67 69 96 123
172 165 158 155 153 155 158 154 153 156 163 171 165 151 142 138 137 135 127 117 116 120 107 74 66 59 60 67 61 62 54 56 64 70 63 42 29 33 38 51 66 58 54
164 159 158 160 157 158 161 163 160 160 165 170 165 153 146 142 139 135 127 123 118 119 104 96 89 69 63 62 65 67 57 54 41 40 48 54 47 35 25 26 47 93 74
162 161 161 160 159 159 163 163 161 163 160 163 164 152 144 140 130 132 133 123 118 102 99 104 105 95 80 69 62 65 58 81 68 49 44 43 40 34 27 23 24 44 87
162 158 154 155 154 156 160 159 163 160 161 162 156 149 148 141 132 129 126 122 120 122 126 124 114 104 97 93 83 74 49 67 75 70 77 63 50 36 19 29 33 32 58
151 147 149 151 153 160 165 166 166 161 159 156 147 150 154 147 143 143 138 137 136 129 126 121 115 110 104 106 110 104 83 71 66 63 79 84 76 53 29 33 33 33 39
150 145 149 153 159 164 167 167 163 159 157 150 151 158 158 154 152 142 135 143 139 136 133 123 117 115 115 112 107 108 97 75 62 54 57 52 63 49 37 44 36 31 39
153 148 150 156 160 163 166 164 160 156 156 156 160 163 158 154 147 136 131 139 133 134 130 120 115 110 96 82 76 84 91 90 80 64 58 52 56 46 37 40 28 36 38
149 149 156 159 159 162 166 165 161 160 161 161 166 164 153 145 138 135 137 133 134 137 126 111 98 92 85 64 54 37 58 86 101 91 87 83 81 70 62 55 34 33 32
158 157 162 162 168 168 169 162 158 163 162 163 165 155 146 140 142 146 141 129 123 115 110 109 105 91 81 70 58 41 16 42 79 103 111 116 104 87 78 68 58 54 53
161 162 168 169 173 173 171 164 163 158 161 161 158 153 147 147 154 151 139 136 131 118 114 115 107 101 94 84 63 33 8 25 29 68 103 97 90 88 90 72 54 38 34
161 163 168 164 169 167 161 156 155 158 163 160 158 155 153 155 157 149 153 156 145 140 138 128 120 115 113 99 74 21 350 23 26 36 70 97 90 63 55 74 62 45 22
155 160 163 159 168 166 160 154 156 157 158 159 161 158 156 155 155 156 160 154 144 141 139 138 137 129 129 128 94 18 345 74 50 48 50 72 84 55 43 59 58 54 8
140 144 149 154 163 161 156 152 156 157 161 162 162 159 153 152 158 164 159 146 139 139 133 131 134 134 137 144 120 48 357 129 96 68 72 74 81 62 49 55 54 27 339
122 129 135 145 153 154 149 154 158 162 159 154 154 153 149 152 156 157 149 143 144 147 146 145 141 139 144 150 140 105 46 17 88 89 76 66 79 67 47 42 49 337 332
117 126 125 121 134 147 150 158 159 154 144 143 146 144 144 149 150 144 143 147 151 156 156 153 148 139 134 134 140 128 104 43 47 85 101 104 101 59 24 16 348 347 353
118 124 125 124 128 144 153 157 151 141 139 140 144 147 146 141 140 143 148 152 153 157 160 155 152 141 131 133 141 151 130 50 62 50 109 128 134 101 328 319 326 339 345
109 116 120 126 132 136 130 142 144 144 141 141 144 143 143 139 140 139 143 150 155 159 160 158 155 144 130 120 133 148 139 96 86 78 105 150 235 270 273 299 290 261 257
108 115 124 127 128 123 127 127 134 143 144 145 144 143 142 144 139 137 138 150 153 160 158 158 154 149 154 174 159 152 165 167 158 126 127 148 268 285 290 292 312 335 353
120 119 114 118 128 127 119 119 132 138 141 145 144 141 139 143 143 138 117 81 112 125 128 127 132 139 144 148 149 156 159 156 135 118 144 214 218 229 281 336 322 326 335
Height
1532 1535 1538 1540 1542 1544 1546 1548 1550 1551 1553 1554 1556 1557 1558 1559 1559 1560 1560 1561 1561 1561 1562 1562 1562 1562 1562 1563 1563 1564 1565 1565 1565 1566 1566 1567 1567 1567 1567 1567 1566 1566 1565
1531 1534 1536 1539 1542 1544 1546 1547 1549 1551 1553 1554 1556 1557 1558 1559 1559 1560 1561 1561 1562 1562 1562 1563 1563 1563 1563 1564 1564 1565 1565 1566 1566 1567 1567 1568 1569 1568 1568 1568 1567 1567 1566
1528 1532 1535 1538 1541 1543 1545 1547 1549 1551 1552 1554 1556 1557 1559 1560 1560 1561 1561 1562 1562 1562 1563 1563 1564 1564 1564 1565 1565 1566 1566 1566 1567 1567 1568 1568 1568 1569 1570 1569 1568 1568 1567
1526 1530 1533 1536 1539 1542 1544 1546 1549 1550 1552 1553 1555 1557 1558 1559 1560 1561 1562 1562 1563 1563 1563 1564 1564 1565 1565 1565 1566 1566 1567 1567 1567 1568 1568 1568 1568 1569 1569 1570 1569 1569 1568
1524 1528 1531 1534 1538 1540 1543 1545 1548 1550 1551 1553 1555 1557 1558 1559 1560 1561 1562 1563 1563 1564 1564 1564 1565 1565 1566 1566 1566 1567 1567 1567 1568 1568 1568 1568 1569 1569 1569 1569 1570 1569 1569
1523 1526 1530 1533 1536 1539 1542 1544 1546 1549 1551 1552 1554 1556 1557 1559 1560 1561 1562 1563 1564 1565 1565 1565 1565 1566 1566 1567 1567 1567 1567 1568 1568 1568 1568 1569 1569 1569 1569 1569 1569 1569 1570
1520 1524 1527 1531 1534 1537 1540 1543 1545 1547 1550 1552 1554 1555 1557 1558 1560 1561 1562 1564 1564 1565 1565 1566 1566 1566 1567 1567 1567 1568 1568 1568 1568 1568 1569 1569 1569 1569 1569 1569 1569 1569 1570
1518 1522 1525 1529 1532 1535 1538 1541 1544 1546 1548 1551 1553 1555 1556 1558 1560 1561 1562 1564 1565 1565 1566 1566 1566 1567 1567 1568 1568 1568 1568 1569 1569 1569 1569 1569 1569 1569 1569 1569 1569 1569 1570
1516 1520 1523 1527 1530 1533 1537 1540 1542 1545 1547 1550 1552 1554 1556 1557 1559 1561 1562 1563 1564 1565 1566 1566 1567 1567 1568 1568 1568 1569 1569 1569 1569 1569 1570 1569 1569 1569 1569 1569 1570 1570 1570
1515 1518 1522 1525 1529 1532 1535 1539 1541 1544 1546 1549 1551 1553 1555 1557 1558 1560 1562 1563 1564 1565 1566 1567 1567 1568 1568 1569 1569 1569 1569 1570 1570 1570 1570 1570 1570 1569 1569 1570 1570 1570 1570
1513 1516 1520 1523 1527 1530 1534 1537 1540 1543 1545 1547 1550 1552 1554 1556 1557 1559 1561 1563 1564 1565 1566 1567 1567 1568 1569 1569 1569 1569 1570 1570 1570 1570 1570 1570 1570 1570 1570 1570 1569 1569 1570
1512 1515 1518 1522 1525 1529 1532 1535 1538 1541 1544 1546 1548 1551 1553 1555 1557 1558 1560 1562 1564 1565 1566 1567 1568 1568 1569 1569 1570 1570 1570 1570 1571 1570 1570 1570 1570 1570 1570 1570 1569 1569 1569
1511 1514 1517 1520 1524 1527 1530 1534 1537 1539 1542 1545 1547 1550 1552 1554 1556 1558 1559 1561 1563 1565 1566 1567 1568 1568 1569 1569 1570 1570 1571 1571 1571 1571 1570 1570 1570 1570 1570 1570 1569 1569 1569
1510 1513 1516 1519 1522 1525 1529 1532 1535 1538 1541 1543 1546 1549 1551 1553 1555 1557 1558 1561 1562 1564 1565 1567 1567 1568 1569 1570 1570 1571 1571 1571 1571 1571 1571 1570 1570 1570 1570 1569 1569 1569 1569
1509 1511 1514 1517 1520 1524 1527 1530 1533 1536 1539 1542 1545 1547 1550 1552 1554 1556 1558 1560 1562 1563 1564 1566 1567 1568 1568 1569 1570 1570 1571 1571 1571 1570 1570 1570 1570 1570 1569 1569 1568 1568 1568
1508 1510 1513 1516 1518 1522 1525 1528 1531 1534 1537 1540 1543 1545 1548 1550 1552 1554 1556 1558 1560 1562 1563 1564 1566 1567 1568 1569 1569 1570 1570 1570 1570 1570 1570 1570 1569 1569 1569 1568 1568 1568 1567
1506 1509 1511 1514 1516 1520 1523 1526 1529 1532 1536 1538 1541 1544 1546 1549 1551 1553 1555 1557 1559 1561 1562 1563 1565 1566 1567 1568 1568 1569 1569 1569 1570 1570 1570 1569 1569 1568 1568 1568 1567 1567 1566
1505 1507 1510 1512 1515 1518 1522 1525 1528 1531 1534 1537 1539 1542 1545 1547 1549 1552 1554 1556 1558 1559 1561 1562 1563 1564 1565 1566 1567 1568 1568 1568 1568 1568 1568 1568 1568 1567 1567 1566 1566 1566 1565
1503 1506 1508 1511 1514 1517 1520 1523 1526 1529 1532 1534 1537 1540 1542 1545 1547 1550 1552 1554 1556 1558 1559 1561 1562 1563 1564 1565 1566 1566 1566 1567 1567 1567 1567 1567 1566 1566 1565 1565 1565 1564 1564
1502 1504 1507 1509 1512 1515 1518 1521 1524 1527 1529 1532 1535 1538 1541 1543 1545 1548 1550 1552 1555 1556 1558 1559 1560 1561 1562 1563 1564 1565 1565 1565 1565 1565 1565 1565 1565 1565 1564 1564 1563 1563 1562
1500 1502 1505 1507 1510 1513 1516 1519 1522 1524 1527 1530 1533 1536 1539 1541 1543 1546 1548 1550 1552 1554 1556 1557 1559 1560 1561 1561 1562 1563 1563 1563 1563 1563 1563 1563 1563 1563 1563 1562 1562 1561 1561
1499 1501 1503 1506 1509 1512 1514 1517 1520 1523 1526 1529 1531 1534 1537 1539 1541 1544 1546 1548 1550 1552 1554 1555 1556 1557 1558 1559 1560 1560 1561 1561 1561 1562 1562 1562 1562 1561 1561 1561 1560 1560 1559
1499 1500 1502 1504 1507 1510 1513 1515 1518 1521 1524 1527 1529 1532 1535 1537 1539 1541 1544 1546 1548 1550 1551 1553 1554 1555 1556 1557 1557 1558 1559 1559 1559 1560 1560 1560 1560 1560 1559 1559 1558 1558 1557
1498 1500 1501 1503 1506 1509 1512 1514 1517 1520 1522 1525 1528 1530 1532 1535 1537 1539 1541 1543 1545 1547 1549 1550 1552 1553 1553 1554 1555 1556 1557 1557 1557 1557 1558 1558 1558 1558 1557 1557 1557 1556 1556
1498 1499 1500 1502 1505 1507 1510 1513 1515 1518 1520 1523 1526 1528 1530 1533 1535 1537 1539 1541 1543 1545 1547 1548 1549 1550 1551 1552 1553 1554 1554 1554 1555 1555 1555 1555 1555 1555 1555 1555 1555 1554 1553
1497 1498 1500 1502 1504 1506 1509 1511 1514 1516 1519 1521 1524 1526 1529 1531 1533 1535 1537 1539 1541 1543 1544 1546 1547 1548 1549 1550 1551 1552 1552 1553 1553 1553 1553 1553 1553 1553 1553 1552 1552 1551 1551